Home   Weather   Mansfield   Past weeks

Flag for USA Past Weather in Mansfield, Texas, USA — Yesterday and Last 2 Weeks

Now
72 °F

Light rain. Low clouds.


Feels Like: 67 °F
Forecast: 72 / 85 °F
Wind: 10 mph from Northwest

Location: Burleson-Rendon

Current Time: Sep 25, 2016 at 9:09:07 AM

Latest Report: Sep 25, 2016 at 8:47 AM


Visibility: 5 mi

Pressure: 30.05 "Hg

Humidity: 94%

Dew Point: 70 °F

Location of MansfieldLocation

Past Weather in Mansfield — Graph

°F

Mansfield Temperature Yesterday

Maximum temperature yesterday: 91 °F (at 12:59 PM)
Minimum temperature yesterday: 76 °F (at 4:35 AM)
Average temperature yesterday: 80 °F

High & Low Weather Summary for the Past Weeks

 TemperatureHumidityPressure
High99 °F (Sep 18, 3:55 PM)96% (Sep 11, 5:15 AM)30.23 "Hg (Sep 11, 5:15 AM)
Low57 °F (Sep 11, 6:35 AM)29% (Sep 20, 1:59 PM)29.89 "Hg (Sep 24, 5:52 PM)
Average78 °F72%30.02 "Hg
* Reported Sep 10 7:56 AM — Sep 25 7:46 AM, Mansfield, Weather by CustomWeather, © 2016

Note: Actual official high and low records may vary slightly from our data, if they occured in-between our weather recording intervals... More about our weather records

Advertising

Mansfield Weather History for the Previous 24 Hours

Scroll right to see more
 ConditionsComfort  
Time TempWeatherWind HumidityBarometerVisibility
7:46 AM
Sun, Sep 25
75 °FFog.No wind94%30.02 "Hg5 mi
6:47 AM75 °FLow clouds.No wind94%30.02 "Hg7 mi
6:35 AM75 °FThundershowers. Mostly cloudy.No wind94%30.01 "Hg10 mi
6:15 AM75 °FThunderstorms. Partly cloudy.No wind94%30.01 "Hg7 mi
5:55 AM75 °FOvercast.No wind93%30.00 "Hg7 mi
5:15 AM76 °FMostly cloudy.3 mph93%30.00 "Hg7 mi
4:55 AM76 °FMostly cloudy.No wind90%30.00 "Hg10 mi
4:15 AM76 °FOvercast.No wind90%30.00 "Hg10 mi
3:55 AM76 °FOvercast.No wind90%30.00 "Hg10 mi
3:35 AM76 °FPartly cloudy.3 mph89%30.00 "Hg10 mi
3:15 AM76 °FLow clouds.6 mph89%30.00 "Hg10 mi
2:55 AM75 °FMostly cloudy.5 mph90%30.00 "Hg10 mi
2:15 AM75 °FPassing clouds.3 mph89%29.99 "Hg10 mi
1:55 AM75 °FPassing clouds.6 mph88%29.98 "Hg10 mi
1:15 AM76 °FPassing clouds.5 mph86%29.98 "Hg10 mi
12:55 AM76 °FPassing clouds.5 mph85%29.97 "Hg10 mi
12:15 AM77 °FClear.8 mph83%29.99 "Hg10 mi
11:55 PM
Sat, Sep 24
77 °FClear.8 mph82%29.99 "Hg10 mi
11:15 PM77 °FClear.13 mph80%29.98 "Hg10 mi
10:55 PM77 °FClear.13 mph79%29.98 "Hg10 mi
10:15 PM77 °FPassing clouds.10 mph77%29.96 "Hg10 mi
9:55 PM77 °FPassing clouds.10 mph79%29.96 "Hg10 mi
9:35 PM77 °FPassing clouds.7 mph77%29.95 "Hg10 mi
9:15 PM77 °FClear.9 mph77%29.95 "Hg10 mi
8:55 PM77 °FClear.9 mph79%29.94 "Hg10 mi
8:35 PM79 °FThunderstorms. Passing clouds.13 mph76%29.93 "Hg10 mi
8:15 PM81 °FThundershowers. Partly cloudy.16 mph70%29.93 "Hg10 mi
7:55 PM85 °FThundershowers. Passing clouds.12 mph63%29.92 "Hg10 mi
6:57 PM88 °FPassing clouds.10 mph55%29.91 "Hg10 mi
5:52 PM91 °FPassing clouds.14 mph49%29.89 "Hg10 mi
4:50 PM90 °FScattered clouds.12 mph55%29.91 "Hg10 mi
3:57 PM90 °FScattered clouds.10 mph52%29.93 "Hg10 mi
2:57 PM90 °FPartly sunny.15 mph55%29.96 "Hg7 mi
1:53 PM90 °FPartly sunny.12 mph52%29.99 "Hg10 mi
12:59 PM91 °FPartly sunny.17 mph49%30.00 "Hg10 mi
11:55 AM86 °FPartly sunny.12 mph62%30.03 "Hg10 mi
10:53 AM82 °FPartly sunny.16 mph70%30.05 "Hg10 mi
9:50 AM81 °FPartly sunny.9 mph79%30.04 "Hg7 mi
Weather by CustomWeather, © 2016

See weather overviewHow to use our weather pages